853  
ASUS41 KAKQ 220315  
RWRAKQ  
 
REGIONAL WEATHER ROUNDUP  
NATIONAL WEATHER SERVICE WAKEFIELD VA  
1100 PM EDT MON AUG 21 2017  
 
NOTE: "FAIR" INDICATES FEW OR NO CLOUDS BELOW 12,000 FEET WITH NO  
SIGNIFICANT WEATHER AND/OR S TO VISIBILITY
. * = DENOTES  
STATION MAY NOT REPORT PRECIPITATION (E.G., RAIN,SNOW,ETC.),
 
THUNDER OR FOG.  
 
VAZ042-051-052>054-056-220400-  
NORTHERN VIRGINIA  
 
CITY SKY/WX TMP DP RH WIND PRES REMARKS
 
WASH NATIONAL MOCLDY 78 74 87 S7 30.13S  
DULLES CLEAR 73 72 96 S6 30.13F  
FORT BELVOIR CLEAR 72 70 94 SE3 30.12F  
QUANTICO CLEAR 78 74 87 SW6 30.13F  
FREDERICKSBRG* CLEAR 75 75 100 CALM 30.12F  
STAFFORD* PTCLDY 73 73 100 CALM 30.17F  
WARRENTON CLEAR 71 67 86 CALM 30.14S  
CULPEPER* CLEAR 71 69 93 CALM 30.14F  
MANASSAS* PTCLDY 73 71 93 W3 30.14S  
LEESBURG* PTCLDY 75 72 88 S5 30.14F  
WINCHESTER CLEAR 72 68 88 CALM 30.13F  
FRONT ROYAL* CLEAR 75 70 83 CALM 30.13F  
LURAY* CLEAR 72 72 100 SE5 30.16S  

 
 
VAZ048-049-060>072-079>083-220400-  
CENTRAL AND SOUTH CENTRAL VIRGINIA  
 
CITY SKY/WX TMP DP RH WIND PRES REMARKS
 
RICHMOND PTCLDY 76 73 91 S8 30.15S  
CHESTERFIELD* FAIR 76 73 91 S3 30.16S  
PETERSBURG* CLEAR 73 73 100 CALM 30.17S FOG  
HANOVER CLEAR 78 71 79 S3 30.16S  
TAPPAHANNOCK* CLEAR 78 73 83 S3 30.16S  
QUINTON* FAIR N/A N/A N/A CALM 30.15S  
CHARLOTTSVILLE CLEAR 78 71 79 CALM 30.16R  
GORDONSVILLE* PTCLDY 72 71 98 CALM 30.15S  
ORANGE* CLEAR 70 70 100 CALM 30.15F  
LOUISA* FOG 72 70 94 CALM 30.15F VSB 3/4  
BUMPASS* FAIR 75 75 100 CALM 30.15F  
FARMVILLE* CLEAR 77 71 82 CALM 30.15F  
CREWE* FAIR 77 73 86 CALM 30.16F  
FORT PICKETT* FAIR N/A N/A N/A S14 30.17S  
CHASE CITY* FAIR 74 73 99 CALM 30.18S  
CLARKSVILLE* FAIR 73 73 100 S3 30.17F  
SOUTH HILL* CLEAR 73 73 100 CALM 30.23S  
LAWRENCEVILLE* FAIR 74 73 96 CALM 30.17F  
EMPORIA* N/A 72 72 100 CALM 30.18S  

 
 
VAZ088>098-220400-  
SOUTHEAST VIRGINIA  
 
CITY SKY/WX TMP DP RH WIND PRES REMARKS
 
NORFOLK CLEAR 80 75 84 S7 30.16S  
VIRGINIA BEACH PTCLDY 78 75 90 S3 30.16S  
NORFOLK NAVAL PTCLDY 81 72 74 S5 30.18S  
WEST POINT* PTCLDY 77 72 84 E3 30.17S  
SALUDA* FAIR 78 74 88 S5 30.15F  
NEWPORT NEWS CLEAR 81 73 76 S5 30.16S  
LANGLEY AFB CLEAR 80 75 83 S8 30.16R  
FORT EUSTIS CLEAR 81 74 81 S6 30.14S  
WILLIAMSBURG* CLEAR 82 75 78 CALM 30.17S  
HR EXEC AP* FAIR 73 70 88 CALM 30.15S  
FRANKLIN* CLEAR 75 73 92 CALM 30.17S  
US460-WAKEFLD CLEAR 78 75 90 CALM 30.16S  

 
 
VAZ020-022-025-037-045-220400-  
WEST CENTRAL AND SOUTHWEST VIRGINIA  
 
CITY SKY/WX TMP DP RH WIND PRES REMARKS
 
STAUNTON* CLEAR 73 68 84 CALM 30.20R  
WAYNESBORO* CLEAR 74 71 89 SW5 30.20S  
HOT SPRINGS VA CLEAR 70 61 73 CALM 30.35S  
LYNCHBURG CLEAR 71 71 100 CALM 30.19S FOG  
DANVILLE CLEAR 72 72 100 CALM 30.18S  
SOUTH BOSTON* FAIR 74 73 95 CALM 30.17F  
MARTINSVILLE PTCLDY 71 70 96 CALM 30.22S  
ROANOKE CLOUDY 74 71 91 SE3 30.22F  
BLACKSBURG CLOUDY 72 71 99 CALM 30.29S FOG  
DUBLIN* CLEAR 71 70 98 CALM 30.27F FOG  
MARION* MOCLDY 70 38 30 CALM 30.30S  
HILLSVILLE* CLEAR 72 65 79 CALM 30.29S  
RICHLANDS* FAIR 74 60 61 SE3 30.28S  
WISE* CLEAR 68 66 94 CALM 30.28F  
ABINGDON* CLEAR 73 69 87 CALM 30.24F  

 
 
MDZ021>025-VAZ099-100-220400-  
SOUTHERN MARYLAND AND THE DELMARVA PENINSULA  
 
CITY SKY/WX TMP DP RH WIND PRES REMARKS
 
PATUXENT RIVER PTCLDY 78 77 96 S6 30.13F  
BAY BRIDGE APT PTCLDY 77 73 88 SW5 30.12F  
LEONARDTOWN PTCLDY 75 73 94 CALM 30.15F  
DOVER CLEAR 76 76 100 S8 30.11F  
GEORGETOWN PTCLDY 76 71 85 S9 30.14F  
EASTON CLEAR 78 74 85 S3 30.17  
CAMBRIDGE NOT AVBL  
SALISBURY MOCLDY 75 74 96 S3 30.15S  
OCEAN CITY CLOUDY 78 75 90 S6 30.16S  
WALLOPS ISLAND PTCLDY 78 77 96 S8 30.16S  
ACCOMACK* CLOUDY 79 76 91 S7 30.16F  

 
 
NCZ012>017-030>032-220400-  
NORTH CENTRAL AND EASTERN NORTH CAROLINA  
 
CITY SKY/WX TMP DP RH WIND PRES REMARKS
 
ROANOKE RAPIDS FAIR 72 72 100 CALM 30.17S FOG  
RALEIGH PTCLDY 77 72 84 CALM 30.19R  
ELIZABETH CITY CLEAR 77 76 96 S3 30.17F  
AHOSKIE* N/A 73 73 99 CALM 30.18S FOG  
EDENTON* CLEAR 81 76 85 CALM 30.18S  
CURRITUCK* CLEAR 78 76 93 CALM 30.18S  
KILL DEVIL HLS CLEAR 76 73 88 CALM 30.17S  
MANTEO CLEAR 78 74 86 S5 30.18S  
CAPE HATTERAS CLEAR 77 75 93 CALM 30.18S  
TARBORO* NOT AVBL  
GOLDSBORO CLEAR 79 73 80 VRB2 30.18R  
WASHINGTON CLEAR 76 74 95 CALM 30.18S  
GREENVILLE CLEAR 77 73 88 CALM 30.19S  
NEW BERN CLEAR 75 75 100 CALM 30.18F  
WILMINGTON PTCLDY 79 77 94 CALM 30.16S  

 
 
VAZ048-220400-  
ELSEWHERE  
 
CITY SKY/WX TMP DP RH WIND PRES REMARKS
 
HARRISBURG PA PTCLDY 75 72 90 SE6 30.11S  
BALTIMORE PTCLDY 73 73 100 CALM 30.12S  
ANNAPOLIS CLEAR 78 76 93 S3 30.12F  
ANDREWS AFB CLEAR 74 69 83 S6 30.12F  
PHILADELPHIA CLOUDY 78 73 84 S8 30.12F  
HENDERSON NC CLEAR 74 69 85 S3 30.19S  
GREENSBORO PTCLDY 77 69 76 S8 30.19R  
ROCKY MOUNT CLEAR 74 74 100 CALM 30.17S  

 
 
VAZ100-220400-  
MARINE  
 
STATION/POSITION TIME TEMP WIND PRES WAVE SWELL
 
AIR SEA DIR/SP/G HT/PER HT/PER  
(UTC) (F) (DEG/KT/KT) (MB) (FT/S) (FT/S)  
BRANDYWINE LGT 0242 77 210/ 12/ 13 1020.8S  
CAPE MAY NJ 0242 77 78 200/ 6/ 9 1019.9F  
LEWES DE 0242 78 78 210/ 5/ 9 1020.4S  
15NM E FENWICK I 0250 79 78 180/ 12/ 14 1021.3F 2/ 9 2/ 9  
OCEAN-CITY-INLET 0242 78 78 220/ 12/ 13 1021.3F  
WACHAPREAGUE VA 0242 81 84 210/ 9/ 12 1021.5R  
THOMAS POINT MD 0300 79 81 200/ 10/ 11 N/A  
GOOSES REEF MD 0300 80 81 200/ 8/ 8 1020.9 1  
COVE POINT MD 0242 79 200/ 6/ 8 1021.1F  
SOLOMONS ISLAND 0242 79 83 180/ 4/ 5 N/A  
BISHOPS HEAD MD 0242 82 82 200/ 12/ 14 1020.9R  
PINEY POINT MD 0236 200/ 10/ 10 N/A  
POTOMAC MD 0300 82 83 190/ 10/ 12 1020.1 1/ 2  
CAMBRIDGE MD 0242 79 83 1021.3S  
LEWISETTA VA 0242 80 85 210/ 5/ 5 1020.7S  
RAPPAHANNOCK LGT 0236 170/ 13/ 14 1021.9R  
STINGRAY PT 0300 82 82 190/ 8/ 8 1021.3 1/ 2  
YORK RVR RNG VA 0242 83 200/ 10/ 11 1021.6R  
YORKTOWN VA 0242 81 83 190/ 3/ 4 1020.9R  
JAMESTOWN VA 0300 85 170/ 4/ 8 N/A 0  
DOMINION TERM VA 0242 82 170/ 9/ 10 1021.4S  
KIPTOPEKE VA 0236 81 190/ 13/ 15 N/A  
CHES BAY BRIDGE 0236 80 80 200/ 8/ 9 1021.4R  
CAPE HENRY VA 0236 78 150/ 4/ 5 N/A  
WILLOUBY STN VA 0236 82 180/ 11/ 12 1021.4R  
S CRANEY ISL VA 0236 81 190/ 5/ 9 1021.3S  
CAPE HENRY BUOY 0300 80 N/A 2/ 8  
1ST LANDING BUOY 0300 80 78 1021.3 1/ 3  
64NM E OF VA BCH 0250 79 80 180/ 4/ 4 1022.5R 2/ 7 2/ 7  
DUCK PIER NC 0236 81 75 160/ 8/ 10 1021.3F  
44100 DUCK FRF 0205 81 N/A 2/ 8  
44056 DUCK FRF 0300 81 N/A 2/10 2/11  
OREGON INLET NC 0236 78 85 140/ 3/ 5 1021.7F  
HATTERAS NC 0236 81 82 140/ 4/ 5 1021.8S  
DIAMOND SHLS NC 0250 83 84 160/ 4/ 6 1021.6F 2/ 9 2/ 9  
CAPE LOOKOUT NC 0300 81 150/ 4/ 5 1021.3F  

 
 
 
CLICK HERE TO GO TO PREVIOUS BULLETINS.

The Nexlab VA Page
The Nexlab NC Page
The Nexlab MD Page Main Text Page